Soldotna, AK

12:34 AM AKDT on August 24, 2017 (GMT -0800)
Soldotna

Weather History for PASX - October, 2011

Change the Weather History Date:

Thursday, October 27, 2011

  Actual Average Record
Temperature  
Mean Temperature 31 °F -  
Max Temperature 39 °F 35 °F 50 °F (1974)
Min Temperature 23 °F 19 °F -9 °F (1996)
Degree Days  
Heating Degree Days 34    
Moisture  
Dew Point 24 °F    
Average Humidity 75    
Maximum Humidity 93    
Minimum Humidity 56    
Precipitation  
Precipitation 0.00 in - - ()
Sea Level Pressure  
Sea Level Pressure 29.52 in    
Wind  
Wind Speed 5 mph (ENE)    
Max Wind Speed 12 mph    
Max Gust Speed -    
Visibility 10 miles    
Events      
Averages and records for this station are not official NWS values.
T = Trace of Precipitation, MM = Missing Value Source: NWS Daily Summary

Daily Weather History Graph

Daily Weather History Graph

Search for Another Location

Airport or City:

Trip Planner

Search our weather history database for the weather conditions in past years. The results will help you decide how hot, cold, wet, or windy it might be!

Date:

Astronomy

Oct. 27, 2011 Rise Set
Actual Time 9:15 AM AKDT 6:19 PM AKDT
Civil Twilight 8:30 AM AKDT 7:04 PM AKDT
Nautical Twilight 7:40 AM AKDT 7:53 PM AKDT
Astronomical Twilight 6:51 AM AKDT 8:42 PM AKDT
Moon 11:12 AM AKDT (10/27) 6:11 PM AKDT (10/27)
Length of Visible Light 10h 33m
Length of Day
9h 04m
New Moon, 2% of the Moon is Illuminated
Oct 27
New Moon
Nov 2
First Quarter
Nov 10
Full
Nov 18
Last Quarter
Nov 24
New

Hourly Weather History & Observations

Time (AKDT) Temp. Windchill Dew Point Humidity Pressure Visibility Wind Dir Wind Speed Gust Speed Precip Events Conditions
12:16 AM 28.4 °F 23.3 °F 24.8 °F 86% 29.52 in 10.0 mi East 4.6 mph - N/A   Overcast
12:36 AM 28.4 °F 22.2 °F 24.8 °F 86% 29.52 in 10.0 mi East 5.8 mph - N/A   Overcast
1:16 AM 28.4 °F 20.4 °F 21.2 °F 74% 29.53 in 10.0 mi East 8.1 mph - N/A   Clear
1:36 AM 28.4 °F 21.2 °F 23.0 °F 80% 29.53 in 10.0 mi East 6.9 mph - N/A   Clear
1:56 AM 26.6 °F 19.1 °F 21.2 °F 80% 29.52 in 10.0 mi ESE 6.9 mph - N/A   Clear
2:16 AM 28.4 °F 22.2 °F 21.2 °F 74% 29.53 in 10.0 mi ESE 5.8 mph - N/A   Clear
2:36 AM 26.6 °F 21.2 °F 21.2 °F 80% 29.53 in 10.0 mi East 4.6 mph - N/A   Clear
2:56 AM 26.6 °F - 21.2 °F 80% 29.54 in 10.0 mi Calm Calm - N/A   Clear
3:16 AM 26.6 °F 21.2 °F 23.0 °F 86% 29.54 in 10.0 mi East 4.6 mph - N/A   Clear
3:36 AM 26.6 °F - 21.2 °F 80% 29.54 in 10.0 mi Calm Calm - N/A   Clear
3:56 AM 24.8 °F - 21.2 °F 86% 29.54 in 10.0 mi Calm Calm - N/A   Clear
4:16 AM 24.8 °F - 19.4 °F 80% 29.54 in 10.0 mi Calm Calm - N/A   Clear
4:36 AM 24.8 °F 20.5 °F 21.2 °F 86% 29.54 in - NW 3.5 mph - N/A   Unknown
4:56 AM 23.0 °F - 19.4 °F 86% 29.54 in 10.0 mi Calm Calm - N/A   Clear
5:16 AM 23.0 °F - 19.4 °F 86% 29.54 in 10.0 mi Calm Calm - N/A   Clear
5:36 AM 23.0 °F - 19.4 °F 86% 29.54 in 10.0 mi Calm Calm - N/A   Clear
5:56 AM 24.8 °F 17.9 °F 21.2 °F 86% 29.54 in 10.0 mi East 5.8 mph - N/A   Clear
6:16 AM 26.6 °F 22.6 °F 21.2 °F 80% 29.54 in 10.0 mi ENE 3.5 mph - N/A   Clear
6:36 AM 26.6 °F 22.6 °F 21.2 °F 80% 29.54 in 10.0 mi ENE 3.5 mph - N/A   Clear
6:56 AM 24.8 °F 17.9 °F 21.2 °F 86% 29.54 in 10.0 mi East 5.8 mph - N/A   Clear
7:16 AM 26.6 °F 21.2 °F 21.2 °F 80% 29.54 in 10.0 mi ESE 4.6 mph - N/A   Partly Cloudy
7:36 AM 24.8 °F 20.5 °F 17.6 °F 74% 29.54 in 10.0 mi East 3.5 mph - N/A   Mostly Cloudy
7:56 AM 24.8 °F - 21.2 °F 86% 29.54 in 10.0 mi Calm Calm - N/A   Overcast
8:16 AM 28.4 °F 23.3 °F 24.8 °F 86% 29.54 in 10.0 mi East 4.6 mph - N/A   Overcast
8:36 AM 28.4 °F 24.6 °F 26.6 °F 93% 29.54 in 10.0 mi ENE 3.5 mph - N/A   Overcast
8:56 AM 30.2 °F 26.7 °F 26.6 °F 86% 29.54 in 10.0 mi ENE 3.5 mph - N/A   Overcast
9:16 AM 28.4 °F 24.6 °F 24.8 °F 86% 29.54 in 10.0 mi East 3.5 mph - N/A   Overcast
9:36 AM 28.4 °F 22.2 °F 26.6 °F 93% 29.54 in 10.0 mi ENE 5.8 mph - N/A   Mostly Cloudy
9:56 AM 30.2 °F 25.4 °F 24.8 °F 80% 29.54 in 10.0 mi East 4.6 mph - N/A   Mostly Cloudy
10:16 AM 30.2 °F 25.4 °F 24.8 °F 80% 29.55 in 10.0 mi East 4.6 mph - N/A   Mostly Cloudy
10:36 AM 30.2 °F 26.7 °F 26.6 °F 86% 29.54 in 10.0 mi ENE 3.5 mph - N/A   Overcast
10:56 AM 32.0 °F 27.5 °F 28.4 °F 87% 29.54 in 10.0 mi ENE 4.6 mph - N/A   Overcast
11:16 AM 33.8 °F 27.7 °F 26.6 °F 75% 29.55 in 10.0 mi ENE 6.9 mph - N/A   Mostly Cloudy
11:36 AM 33.8 °F 27.0 °F 26.6 °F 75% 29.55 in 10.0 mi ENE 8.1 mph - N/A   Clear
11:56 AM 33.8 °F 26.4 °F 26.6 °F 75% 29.55 in 10.0 mi ENE 9.2 mph - N/A   Partly Cloudy
12:16 PM 33.8 °F 27.7 °F 26.6 °F 75% 29.55 in 10.0 mi ENE 6.9 mph - N/A   Mostly Cloudy
12:36 PM 33.8 °F 25.8 °F 26.6 °F 75% 29.55 in 10.0 mi NE 10.4 mph - N/A   Scattered Clouds
12:56 PM 35.6 °F 27.5 °F 26.6 °F 70% 29.55 in 10.0 mi NE 11.5 mph - N/A   Clear
1:16 PM 35.6 °F 27.5 °F 26.6 °F 70% 29.54 in 10.0 mi ENE 11.5 mph - N/A   Clear
1:36 PM 35.6 °F 28.0 °F 26.6 °F 70% 29.54 in 10.0 mi NE 10.4 mph - N/A   Clear
1:56 PM 35.6 °F 29.2 °F 26.6 °F 70% 29.53 in 10.0 mi NE 8.1 mph - N/A   Scattered Clouds
2:16 PM 35.6 °F 28.6 °F 26.6 °F 70% 29.53 in 10.0 mi NE 9.2 mph - N/A   Partly Cloudy
2:36 PM 37.4 °F 30.3 °F 26.6 °F 65% 29.53 in 10.0 mi NNE 10.4 mph - N/A   Clear
2:56 PM 37.4 °F 30.3 °F 26.6 °F 65% 29.52 in 10.0 mi NE 10.4 mph - N/A   Clear
3:16 PM 37.4 °F 31.4 °F 26.6 °F 65% 29.51 in 10.0 mi ENE 8.1 mph - N/A   Clear
3:36 PM 37.4 °F 30.8 °F 26.6 °F 65% 29.51 in 10.0 mi NE 9.2 mph - N/A   Clear
3:56 PM 39.2 °F 33.6 °F 26.6 °F 61% 29.50 in 10.0 mi NE 8.1 mph - N/A   Clear
4:16 PM 39.2 °F 33.6 °F 26.6 °F 61% 29.50 in 10.0 mi NE 8.1 mph - N/A   Clear
4:36 PM 39.2 °F 32.5 °F 26.6 °F 61% 29.49 in 10.0 mi NE 10.4 mph - N/A   Mostly Cloudy
4:56 PM 39.2 °F 35.0 °F 26.6 °F 61% 29.49 in 10.0 mi NE 5.8 mph - N/A   Scattered Clouds
5:16 PM 39.2 °F 35.9 °F 24.8 °F 56% 29.48 in 10.0 mi NE 4.6 mph - N/A   Clear
5:36 PM 37.4 °F 33.8 °F 24.8 °F 60% 29.48 in 10.0 mi NE 4.6 mph - N/A   Partly Cloudy
5:56 PM 37.4 °F 32.1 °F 24.8 °F 60% 29.48 in 10.0 mi NE 6.9 mph - N/A   Mostly Cloudy
6:16 PM 35.6 °F 29.9 °F 24.8 °F 65% 29.48 in 10.0 mi ENE 6.9 mph - N/A   Overcast
6:36 PM 35.6 °F 31.7 °F 23.0 °F 60% 29.47 in 10.0 mi ENE 4.6 mph - N/A   Overcast
6:56 PM 35.6 °F 29.2 °F 24.8 °F 65% 29.47 in 10.0 mi ENE 8.1 mph - N/A   Mostly Cloudy
7:16 PM 35.6 °F 29.2 °F 24.8 °F 65% 29.47 in 10.0 mi ENE 8.1 mph - N/A   Overcast
7:36 PM 35.6 °F 29.9 °F 23.0 °F 60% 29.47 in 10.0 mi ENE 6.9 mph - N/A   Overcast
7:56 PM 33.8 °F 28.6 °F 23.0 °F 65% 29.47 in 10.0 mi ENE 5.8 mph - N/A   Scattered Clouds
8:16 PM 33.8 °F 28.6 °F 23.0 °F 65% 29.46 in 10.0 mi ENE 5.8 mph - N/A   Mostly Cloudy
8:36 PM 33.8 °F 30.8 °F 23.0 °F 65% 29.46 in 10.0 mi ENE 3.5 mph - N/A   Overcast
8:56 PM 33.8 °F 28.6 °F 24.8 °F 70% 29.45 in 10.0 mi ENE 5.8 mph - N/A   Mostly Cloudy
9:16 PM 32.0 °F 27.5 °F 23.0 °F 69% 29.45 in 10.0 mi ENE 4.6 mph - N/A   Partly Cloudy
9:56 PM 28.4 °F - 23.0 °F 80% 29.44 in 10.0 mi Calm Calm - N/A   Clear
10:16 PM 28.4 °F - 21.2 °F 74% 29.44 in - Calm Calm - N/A   Clear
10:36 PM 26.6 °F - 21.2 °F 80% 29.44 in - Calm Calm - N/A   Clear
10:56 PM 26.6 °F - 21.2 °F 80% 29.43 in - Calm Calm - N/A   Clear
11:16 PM 26.6 °F - 21.2 °F 80% 29.43 in - Calm Calm - N/A   Clear
11:36 PM 26.6 °F - 21.2 °F 80% 29.43 in - Calm Calm - N/A   Clear
11:56 PM 24.8 °F - 21.2 °F 86% 29.42 in - Calm Calm - N/A   Unknown